"Pseudo-MPEC" for P11JcoX

Created 2023 Sep 27 0:22:12 UT using Find_Orb

Click here for an explanation of pseudo-MPECs

 
 Astrometry: 
     P11JcoX* C2023 09 112@^o@0l8vChR@0mxGQQJ,Vy@rCF,_YM9=vZAstrometryMBL$eoVF51
     P11JcoX  C2023 09 11+Yredacted;IeWclickK.OHeNC7KiCdHJhere#@!7GCKc3(nforlF51
     P11JcoX  C2023 09 11+Z#VPf_SQ3PB8?eBjZbkq/h55Qqn4L3d8explanationrqC`GexAF51

Station data:
(F51) Pan-STARRS 1, Haleakala  (N20.707234 W156.255910)  US/Hawaii.
   Observers J. Bulger, T. Lowe, A. Schultz, M. Willman. Measurers K.
   Chambers, S. Chastel, T. de Boer, L. Denneau, J. Fairlamb, H. Flewelling,
   M. Huber, C.-C. Lin, E. Magnier, Y. Ramanjooloo, R. Wainscoat, R. Weryk.
   1.8-m Ritchey-Chrétien + CCD.

Orbital elements:  P11JcoX
   Perihelion 2023 Oct 17.61746 +/- 54.3 TT = 14:49:08 (JD 2460235.11746)
Epoch 2023 Sep 11.0 TT = JDT 2460198.5   Earth MOID: 0.6125   Ju: 0.6859
M 353.98002762 +/- 16               (J2000 ecliptic)             AutoNEOCP
n   0.16440170 +/- 0.202            Peri.  318.56523 +/- 90
a   3.30013600 +/- 2.71             Node    48.52308 +/- 44
e   0.5180734 +/- 0.246             Incl.   11.91935 +/- 4.5
P   6.00                   H 21.00  G  0.15   U 11.7  SR
q 1.59042323 +/- 0.571    Q 5.00984877 +/- 189
From 3 observations 2023 Sept. 11 (43.5 min); mean residual 0".03
Residuals in arcseconds: 
230911 F51  .02-  .00     230911 F51  .05+  .01+    230911 F51  .03-  .01-    

Ephemerides (geocentric):
Date (UTC) HH   RA             Dec           delta  r     elong  mag " sig PA
---- --------  ------------   ------------  ------ ------ -----  --- --------
2023 09 27 00  23 33 35.562   -28 58 27.97  .66110 1.6032 148.3 22.1  35d  68
2023 09 27 01  23 33 34.397   -28 57 54.95  .66113 1.6032 148.3 22.1  35d  68
2023 09 27 02  23 33 33.235   -28 57 21.87  .66117 1.6031 148.3 22.1  35d  68
2023 09 27 03  23 33 32.074   -28 56 48.73  .66120 1.6031 148.3 22.1  35d  68
2023 09 27 04  23 33 30.915   -28 56 15.54  .66123 1.6030 148.3 22.1  35d  68
2023 09 27 05  23 33 29.758   -28 55 42.28  .66127 1.6030 148.2 22.1  35d  68
2023 09 27 06  23 33 28.603   -28 55 08.98  .66130 1.6029 148.2 22.1  35d  68
2023 09 27 07  23 33 27.450   -28 54 35.61  .66134 1.6029 148.2 22.1  35d  68
2023 09 27 08  23 33 26.298   -28 54 02.19  .66137 1.6028 148.2 22.1  35d  68
2023 09 27 09  23 33 25.149   -28 53 28.71  .66141 1.6028 148.2 22.1  35d  68
2023 09 27 10  23 33 24.002   -28 52 55.17  .66144 1.6027 148.1 22.1  35d  68
2023 09 27 11  23 33 22.856   -28 52 21.58  .66148 1.6027 148.1 22.1  35d  68
2023 09 27 12  23 33 21.713   -28 51 47.93  .66152 1.6026 148.1 22.1  35d  68
2023 09 27 13  23 33 20.571   -28 51 14.23  .66155 1.6026 148.1 22.1  35d  68
2023 09 27 14  23 33 19.432   -28 50 40.46  .66159 1.6025 148.1 22.1  35d  68
2023 09 27 15  23 33 18.294   -28 50 06.65  .66163 1.6025 148.0 22.1  35d  68
2023 09 27 16  23 33 17.159   -28 49 32.77  .66166 1.6024 148.0 22.1  35d  68
2023 09 27 17  23 33 16.025   -28 48 58.84  .66170 1.6024 148.0 22.1  35d  68
2023 09 27 18  23 33 14.893   -28 48 24.85  .66174 1.6023 148.0 22.1  35d  68
2023 09 27 19  23 33 13.764   -28 47 50.81  .66177 1.6023 148.0 22.1  35d  68
2023 09 27 20  23 33 12.636   -28 47 16.70  .66181 1.6022 148.0 22.1  35d  68
2023 09 27 21  23 33 11.511   -28 46 42.55  .66185 1.6022 147.9 22.1  35d  68
2023 09 27 22  23 33 10.387   -28 46 08.33  .66189 1.6021 147.9 22.1  35d  68
2023 09 27 23  23 33 09.266   -28 45 34.06  .66193 1.6021 147.9 22.1  35d  68
2023 09 28 00  23 33 08.146   -28 44 59.74  .66197 1.6020 147.9 22.1  35d  68
2023 09 28 01  23 33 07.029   -28 44 25.36  .66201 1.6020 147.9 22.1  35d  68
2023 09 28 02  23 33 05.913   -28 43 50.92  .66205 1.6019 147.8 22.1  35d  68
2023 09 28 03  23 33 04.800   -28 43 16.42  .66209 1.6019 147.8 22.1  35d  68
2023 09 28 04  23 33 03.689   -28 42 41.87  .66213 1.6018 147.8 22.1  35d  68
2023 09 28 05  23 33 02.579   -28 42 07.27  .66217 1.6018 147.8 22.1  35d  68
2023 09 28 06  23 33 01.472   -28 41 32.60  .66221 1.6017 147.8 22.1  35d  68
2023 09 28 07  23 33 00.367   -28 40 57.89  .66225 1.6017 147.7 22.1  35d  68
2023 09 28 08  23 32 59.264   -28 40 23.11  .66229 1.6016 147.7 22.1  35d  68
2023 09 28 09  23 32 58.163   -28 39 48.28  .66233 1.6016 147.7 22.1  35d  68
2023 09 28 10  23 32 57.064   -28 39 13.40  .66237 1.6015 147.7 22.1  36d  68
2023 09 28 11  23 32 55.967   -28 38 38.45  .66242 1.6015 147.7 22.1  36d  68
2023 09 28 12  23 32 54.873   -28 38 03.46  .66246 1.6014 147.6 22.1  36d  68
2023 09 28 13  23 32 53.780   -28 37 28.40  .66250 1.6014 147.6 22.1  36d  68
2023 09 28 14  23 32 52.690   -28 36 53.30  .66254 1.6013 147.6 22.1  36d  68
2023 09 28 15  23 32 51.601   -28 36 18.13  .66259 1.6013 147.6 22.1  36d  68
2023 09 28 16  23 32 50.515   -28 35 42.91  .66263 1.6012 147.6 22.1  36d  68
2023 09 28 17  23 32 49.431   -28 35 07.64  .66267 1.6012 147.5 22.1  36d  68
2023 09 28 18  23 32 48.349   -28 34 32.31  .66272 1.6012 147.5 22.1  36d  68
2023 09 28 19  23 32 47.269   -28 33 56.92  .66276 1.6011 147.5 22.1  36d  68
2023 09 28 20  23 32 46.192   -28 33 21.48  .66281 1.6011 147.5 22.1  36d  68
2023 09 28 21  23 32 45.116   -28 32 45.98  .66285 1.6010 147.5 22.1  36d  68
2023 09 28 22  23 32 44.043   -28 32 10.43  .66290 1.6010 147.4 22.1  36d  68
2023 09 28 23  23 32 42.972   -28 31 34.82  .66294 1.6009 147.4 22.1  36d  68